Wind_Speed
4 5 6 7 9 10 11 13 14 15 16 17 18 18 18 17 17 17 16 15 14 13 13 13 13 13 14 16 17 19 21 23 24 25 26 27 29 29 29 30 31 31 31
4 4 5 7 8 10 11 12 14 15 16 17 18 18 18 18 17 17 17 16 14 13 12 11 11 11 12 13 15 17 19 21 23 24 26 27 28 30 29 30 31 32 32
4 4 5 6 8 9 11 12 14 15 16 17 18 18 19 18 18 18 17 16 14 12 10 10 10 9 10 10 12 15 17 19 21 23 25 27 28 28 29 31 31 32 33
4 4 4 6 7 9 10 12 14 15 16 17 18 19 19 19 19 19 18 16 14 12 10 9 9 8 8 8 10 11 14 16 18 21 23 25 26 28 28 30 31 32 33
4 3 4 5 7 8 10 11 13 15 17 18 18 19 19 20 20 19 18 17 14 12 11 10 8 8 7 7 7 9 11 13 15 18 21 22 25 26 27 27 29 31 32
4 4 4 5 6 8 9 11 13 15 17 18 18 19 20 20 20 19 19 17 15 13 11 10 9 8 7 5 5 7 9 11 13 15 18 20 22 24 26 26 28 30 31
5 4 4 5 6 8 9 11 13 15 16 17 18 19 20 20 20 19 19 18 16 14 12 10 9 8 6 5 4 5 7 10 12 13 15 17 19 21 23 24 27 29 30
5 4 4 5 6 8 9 11 12 14 16 17 18 19 20 20 20 19 19 18 17 15 13 12 10 9 7 5 4 3 5 7 10 12 14 15 16 17 20 22 23 25 27
6 5 5 5 6 8 9 10 12 13 15 16 18 18 19 20 20 19 18 18 18 16 15 13 11 9 8 6 4 3 3 5 7 9 12 14 15 16 17 18 20 21 23
7 6 6 6 6 7 8 10 11 13 14 16 17 18 19 19 19 19 19 19 18 17 15 14 12 10 8 6 4 2 3 4 6 7 10 11 13 15 15 17 18 19 21
8 7 6 6 6 7 8 9 10 12 13 15 16 17 18 19 19 19 19 18 18 17 16 15 14 12 10 7 5 3 2 2 4 6 7 9 10 13 14 15 17 18 19
8 7 7 6 7 7 8 9 10 11 12 14 15 16 17 18 19 19 19 18 17 17 16 15 14 13 11 8 6 4 3 2 2 4 6 7 9 10 12 14 16 17 19
9 8 8 7 7 7 8 8 9 10 12 13 14 15 16 17 18 19 18 18 17 16 16 15 14 13 12 10 7 5 4 3 2 3 4 6 7 9 10 12 14 16 18
10 9 8 8 7 7 8 8 9 10 11 12 14 15 16 17 18 18 18 18 17 16 15 14 14 13 12 11 9 7 5 3 3 3 4 5 6 8 9 12 13 15 17
11 10 9 9 9 8 8 8 9 10 11 12 13 14 15 16 17 18 18 17 17 16 15 14 14 13 12 11 9 8 7 5 4 3 4 4 5 6 8 9 11 13 14
12 12 11 10 10 9 9 9 9 10 11 12 13 14 15 15 16 17 17 17 16 16 15 14 13 13 12 11 10 9 7 6 5 4 4 4 4 5 6 7 9 10 12
13 13 12 11 11 11 10 10 10 10 11 12 12 13 14 15 16 16 16 16 16 16 15 14 13 13 12 11 11 10 9 7 6 6 6 5 5 6 7 8 9 10 11
15 14 13 13 12 12 12 11 11 11 12 12 13 13 14 15 15 16 16 16 16 15 14 14 13 12 12 11 11 10 10 9 8 8 7 7 7 7 8 9 10 10 11
16 15 15 15 14 13 13 13 13 13 13 13 13 14 14 15 15 15 15 15 15 15 14 14 13 13 12 12 11 11 11 10 9 9 9 9 9 9 9 9 10 11 12
17 17 17 16 16 15 15 14 14 14 14 14 14 14 15 15 15 16 15 15 15 15 15 14 14 13 13 13 12 12 11 11 11 10 10 10 10 10 10 10 11 11 12
19 18 18 18 17 17 16 16 15 15 15 15 15 16 16 16 16 16 16 15 15 15 15 15 15 14 14 14 13 13 13 13 12 12 12 12 12 12 12 12 13 13 13
20 20 20 20 19 18 18 18 17 17 17 17 17 17 17 17 17 17 17 16 16 16 16 16 16 16 16 15 15 15 14 14 14 13 13 13 13 14 14 14 14 14 15
22 22 22 22 21 20 20 19 19 19 19 19 18 18 18 18 18 18 17 17 17 17 17 17 17 17 17 17 17 17 16 16 15 15 15 15 15 15 15 15 15 16 16
24 24 24 23 23 22 22 22 22 21 21 21 20 20 20 19 19 19 19 19 19 19 18 19 19 18 18 18 18 18 18 18 18 17 17 17 17 17 17 17 17 18 18
26 26 26 25 25 25 24 24 24 24 23 23 22 22 21 21 21 20 20 20 20 20 20 20 20 20 21 21 21 20 20 20 20 19 19 19 18 18 18 18 19 20 20
28 28 28 28 28 27 27 26 26 25 25 25 24 24 23 23 22 22 22 22 22 22 22 22 22 22 23 23 23 23 22 22 22 22 21 21 21 21 21 21 22 22 22
Wind_Direction
297 314 330 341 348 352 355 357 358 358 357 356 354 353 352 349 346 343 337 330 322 313 304 297 289 279 268 261 253 244 240 237 234 231 229 228 226 224 223 222 221 220 221
296 310 325 337 346 352 356 358 359 359 359 359 359 358 356 354 352 349 346 340 332 322 315 307 298 286 273 263 255 247 241 237 234 232 230 227 226 225 224 223 223 221 220
288 305 321 335 346 352 357 359 359 359 360 1 0 360 359 357 355 354 351 347 341 334 327 319 310 297 282 269 259 249 241 235 232 231 230 227 225 223 224 225 224 223 222
280 303 322 339 347 352 356 358 359 360 1 1 1 1 1 1 359 357 356 355 351 345 340 331 322 312 296 277 262 249 238 233 231 229 228 227 226 222 223 224 226 225 224
269 292 317 334 344 351 355 357 359 1 1 1 1 2 2 2 2 1 1 0 358 354 348 342 334 324 309 289 265 248 237 231 228 227 225 224 224 224 222 223 225 225 225
260 280 307 326 340 348 352 355 358 0 2 2 3 3 4 4 4 5 5 4 1 357 351 346 343 334 320 301 275 249 235 229 227 223 222 223 226 225 224 226 226 225 226
254 271 299 320 334 343 347 352 356 359 1 3 4 5 5 5 6 7 7 7 5 2 357 351 348 343 331 314 292 254 234 228 226 224 222 222 225 229 228 229 229 227 228
250 263 290 314 329 337 343 349 354 357 0 2 4 5 7 8 8 8 9 10 9 7 4 0 358 356 350 335 315 272 238 228 229 228 227 226 225 231 231 231 231 231 230
246 260 282 306 323 332 339 346 351 355 358 1 3 5 7 9 10 10 10 11 10 10 9 8 7 6 0 348 333 296 257 237 231 231 231 229 230 233 232 232 232 231 230
247 261 278 298 314 326 336 343 348 353 357 360 2 5 8 9 10 10 11 12 12 12 14 13 13 12 8 0 350 312 276 250 236 230 231 235 237 235 235 236 236 236 235
248 259 272 288 304 318 330 339 345 351 355 358 1 3 6 8 8 9 10 11 12 13 14 15 18 18 16 12 10 1 320 262 240 233 235 238 238 237 236 235 235 236 236
248 256 266 280 294 307 321 332 341 347 352 355 358 1 4 6 7 8 9 10 11 13 15 16 18 19 18 17 17 17 5 317 256 241 241 241 241 238 235 235 235 236 237
247 254 263 273 285 298 312 324 334 341 347 351 355 358 1 4 5 6 7 9 11 12 15 16 17 18 19 19 19 18 11 0 324 267 256 250 250 246 241 239 240 240 238
246 252 260 269 278 290 303 316 326 334 340 346 350 353 357 0 2 3 5 7 9 11 12 14 15 15 17 18 20 18 8 352 343 319 286 265 259 253 247 244 243 243 242
246 250 258 266 274 284 295 307 317 325 332 339 344 348 351 355 357 360 2 4 6 7 8 10 11 11 12 13 11 12 8 358 351 341 317 288 274 260 250 248 246 245 244
247 250 255 263 271 279 288 298 308 317 325 331 337 341 346 349 352 356 358 1 3 4 5 5 6 7 7 8 7 3 0 353 344 337 330 314 295 272 259 253 250 248 247
246 249 255 261 267 275 283 291 300 309 316 323 329 333 338 343 346 349 352 355 357 359 1 2 3 3 4 3 2 359 355 348 337 326 318 313 303 288 274 267 262 257 252
247 249 254 259 265 272 279 286 293 301 308 315 321 326 330 334 338 342 345 348 350 352 354 355 356 356 357 356 355 354 350 345 337 329 320 312 303 296 284 272 265 262 258
248 250 254 258 264 270 276 282 287 294 301 308 314 318 323 327 331 334 338 340 343 345 346 347 347 348 348 348 347 345 342 338 333 327 318 309 303 298 293 283 274 267 263
250 252 254 258 263 268 273 277 282 288 294 300 307 311 315 320 324 326 329 333 335 337 338 339 339 339 340 341 340 338 334 332 327 322 316 307 300 295 290 285 280 274 270
252 254 255 258 262 266 270 274 277 283 289 295 300 304 308 313 317 320 322 325 327 329 330 330 330 330 330 330 331 330 328 325 322 317 312 307 300 295 290 286 281 277 274
254 255 256 258 261 265 269 272 275 279 285 290 295 299 302 306 310 313 315 317 319 321 322 322 322 323 323 323 322 320 320 319 317 313 309 305 300 295 290 287 284 280 277
255 256 257 259 261 264 267 270 273 277 282 286 290 294 297 299 302 305 308 310 312 314 315 316 318 318 318 319 318 317 314 314 312 308 304 302 300 296 291 289 286 284 281
256 257 258 260 261 263 265 268 272 276 279 282 286 289 291 294 296 298 301 305 306 308 309 311 313 314 315 315 315 314 312 310 308 305 301 299 297 295 292 289 287 284 282
257 258 258 260 262 263 265 268 271 274 277 279 282 285 288 290 291 294 297 300 302 304 304 306 308 309 310 311 311 310 309 308 306 304 301 299 296 293 292 289 287 285 283
259 259 259 260 262 264 266 268 270 273 275 277 279 282 284 286 288 290 293 295 298 300 301 302 303 304 305 306 306 306 305 304 303 301 300 297 294 293 292 290 288 286 285
Height
5854 5853 5851 5849 5847 5845 5842 5839 5835 5832 5828 5824 5819 5815 5811 5806 5802 5798 5794 5791 5787 5785 5782 5780 5779 5778 5778 5778 5779 5781 5784 5786 5789 5793 5796 5799 5803 5807 5811 5815 5820 5824 5827
5853 5852 5850 5848 5846 5844 5841 5838 5835 5831 5827 5823 5818 5814 5809 5805 5801 5796 5792 5788 5785 5782 5779 5777 5776 5775 5774 5774 5775 5776 5779 5781 5784 5787 5790 5794 5798 5801 5805 5809 5814 5818 5822
5852 5851 5849 5848 5846 5843 5841 5837 5834 5830 5826 5822 5818 5813 5809 5804 5800 5795 5791 5786 5782 5779 5777 5775 5773 5772 5771 5771 5771 5772 5774 5777 5779 5782 5785 5789 5792 5796 5800 5804 5808 5812 5816
5850 5849 5848 5847 5845 5843 5840 5837 5834 5830 5826 5821 5817 5813 5808 5803 5799 5794 5789 5785 5781 5778 5775 5773 5771 5769 5768 5768 5768 5769 5770 5772 5775 5777 5780 5784 5787 5791 5795 5799 5803 5807 5810
5849 5848 5847 5846 5844 5842 5839 5836 5833 5829 5825 5821 5817 5812 5808 5803 5798 5793 5789 5784 5780 5777 5774 5771 5769 5768 5766 5766 5765 5766 5767 5769 5771 5773 5776 5779 5782 5786 5790 5793 5797 5801 5805
5848 5847 5846 5845 5843 5841 5839 5836 5833 5829 5825 5821 5816 5812 5807 5802 5798 5793 5788 5784 5780 5776 5773 5770 5768 5766 5765 5764 5763 5764 5764 5766 5768 5770 5772 5775 5778 5781 5785 5788 5791 5795 5799
5846 5846 5845 5844 5842 5840 5838 5835 5832 5829 5825 5820 5816 5812 5807 5802 5798 5793 5788 5784 5780 5776 5773 5770 5767 5765 5763 5762 5762 5762 5762 5764 5766 5767 5770 5772 5775 5777 5780 5783 5786 5789 5793
5845 5844 5844 5843 5841 5839 5837 5834 5831 5828 5824 5820 5816 5812 5807 5802 5798 5793 5789 5784 5780 5776 5773 5770 5767 5764 5763 5762 5761 5761 5761 5762 5764 5765 5767 5769 5771 5774 5776 5779 5781 5784 5787
5843 5843 5842 5841 5840 5838 5836 5834 5831 5828 5824 5820 5816 5812 5807 5803 5798 5794 5789 5785 5781 5777 5773 5770 5767 5764 5762 5761 5760 5760 5760 5761 5762 5763 5765 5767 5768 5770 5772 5774 5777 5780 5782
5841 5841 5840 5840 5838 5837 5835 5833 5830 5827 5824 5820 5816 5812 5808 5803 5799 5794 5790 5786 5781 5777 5774 5770 5767 5764 5762 5761 5760 5759 5759 5760 5760 5762 5763 5764 5765 5767 5769 5771 5773 5775 5777
5839 5839 5839 5838 5837 5835 5834 5832 5829 5826 5823 5820 5816 5812 5808 5804 5799 5795 5791 5786 5782 5778 5775 5771 5768 5765 5763 5761 5760 5759 5759 5759 5759 5760 5761 5762 5763 5764 5765 5767 5769 5770 5772
5837 5837 5837 5836 5835 5834 5832 5830 5828 5825 5822 5819 5816 5812 5808 5804 5800 5796 5791 5787 5783 5779 5776 5772 5769 5766 5764 5762 5760 5759 5759 5759 5759 5759 5760 5760 5761 5761 5762 5763 5765 5766 5768
5835 5835 5834 5834 5833 5832 5831 5829 5827 5824 5822 5819 5815 5812 5808 5804 5800 5796 5792 5788 5784 5780 5777 5773 5770 5768 5765 5763 5761 5760 5759 5759 5759 5759 5759 5759 5759 5759 5759 5760 5761 5763 5764
5832 5832 5832 5832 5831 5830 5829 5827 5825 5823 5820 5818 5815 5811 5808 5804 5800 5797 5793 5789 5785 5781 5778 5775 5771 5769 5766 5764 5762 5761 5760 5759 5758 5758 5758 5757 5757 5757 5757 5758 5758 5759 5760
5829 5830 5830 5829 5829 5828 5827 5825 5824 5821 5819 5816 5814 5811 5807 5804 5800 5797 5793 5789 5785 5782 5778 5775 5772 5770 5767 5765 5763 5761 5760 5759 5758 5757 5757 5756 5755 5755 5755 5755 5756 5756 5757
5826 5827 5827 5826 5826 5825 5824 5823 5821 5820 5817 5815 5812 5809 5806 5803 5800 5796 5793 5789 5786 5782 5779 5776 5773 5770 5768 5766 5764 5762 5760 5759 5757 5757 5756 5755 5754 5754 5753 5753 5753 5753 5754
5823 5823 5823 5823 5823 5822 5821 5820 5819 5817 5815 5813 5811 5808 5805 5802 5799 5796 5793 5789 5786 5783 5779 5776 5774 5771 5769 5766 5764 5762 5760 5758 5757 5756 5755 5754 5753 5752 5751 5751 5750 5750 5751
5819 5819 5820 5820 5819 5819 5818 5817 5816 5814 5813 5811 5808 5806 5803 5801 5798 5795 5792 5788 5785 5782 5779 5776 5774 5771 5769 5766 5764 5762 5760 5758 5756 5755 5753 5752 5751 5750 5749 5749 5748 5748 5748
5814 5815 5816 5816 5816 5815 5815 5814 5813 5811 5810 5808 5806 5804 5801 5799 5796 5793 5790 5787 5784 5781 5779 5776 5773 5770 5768 5766 5763 5761 5759 5757 5755 5753 5751 5750 5749 5748 5747 5746 5745 5745 5745
5810 5810 5811 5811 5811 5811 5810 5810 5809 5808 5806 5805 5803 5801 5798 5796 5793 5791 5788 5785 5783 5780 5777 5774 5772 5769 5767 5764 5762 5760 5757 5755 5753 5751 5749 5748 5746 5745 5744 5743 5742 5742 5741
5805 5805 5806 5806 5806 5806 5806 5805 5804 5803 5802 5801 5799 5797 5795 5793 5790 5788 5785 5783 5780 5778 5775 5773 5770 5767 5765 5763 5760 5758 5755 5753 5751 5749 5747 5745 5744 5742 5741 5740 5739 5738 5738
5799 5800 5800 5801 5801 5801 5800 5800 5799 5799 5798 5796 5795 5793 5791 5789 5787 5785 5782 5780 5778 5775 5773 5770 5768 5765 5763 5760 5758 5755 5753 5750 5748 5746 5744 5742 5740 5739 5738 5736 5735 5735 5734
5793 5793 5794 5794 5795 5795 5795 5794 5794 5793 5792 5791 5790 5788 5786 5785 5783 5780 5778 5776 5774 5772 5769 5767 5764 5762 5759 5757 5754 5752 5749 5747 5745 5743 5740 5738 5736 5735 5734 5732 5731 5730 5729
5786 5787 5787 5788 5788 5788 5788 5788 5788 5787 5786 5785 5784 5783 5781 5779 5778 5776 5774 5772 5769 5767 5765 5763 5760 5758 5755 5753 5750 5748 5745 5743 5741 5738 5736 5734 5732 5730 5729 5728 5726 5725 5724
5778 5779 5780 5781 5781 5781 5781 5781 5781 5780 5779 5778 5777 5776 5775 5773 5772 5770 5768 5767 5765 5762 5760 5758 5756 5753 5751 5748 5746 5743 5741 5738 5736 5733 5731 5729 5727 5726 5724 5723 5721 5720 5718
5770 5771 5772 5772 5773 5773 5773 5773 5773 5773 5772 5771 5770 5769 5768 5767 5765 5764 5762 5760 5759 5757 5754 5752 5750 5748 5745 5743 5740 5738 5735 5733 5730 5728 5726 5724 5722 5720 5718 5717 5715 5713 5712